This demonstration page uses our WeatherBlox Daily Observations layout. Learn more.

Left ArrowRight Arrow

38.83388, -104.82136

Hourly Observations for January 10, 2017

Temp ( °F °C ) Dew Point ( °F °C ) Humidity (%) Winds ( mph kmh ) Pressure ( in mb ) Visibility ( mi km ) Precip ( " mm )
12:02 am 00:02 Partly Cloudy 43 6 18 -8 36 36 ESE 18 30 29.29 992 10 16 0.00 0.00
12:05 am 00:05 Partly Cloudy 45 7 18 -8 34 34 SSE 26 43 29.26 991 10 16 0.00 0.00
12:10 am 00:10 Mostly Cloudy 45 7 16 -9 31 31 ESE 16 26 29.26 991 10 16 0.00 0.00
12:40 am 00:40 Partly Cloudy 45 7 16 -9 31 31 E 18 30 29.26 991 10 16 0.00 0.00
12:43 am 00:43 Mostly Clear 45 7 16 -9 31 31 E 12 19 29.26 991 10 16 0.00 0.00
12:47 am 00:47 Mostly Clear 45 7 16 -9 31 31 NNE 12 19 29.29 992 10 16 0.00 0.00
12:51 am 00:51 Mostly Clear 43 6 14 -10 31 31 E 18 30 29.32 993 10 16 0.00 0.00
12:54 am 00:54 Clear 45 7 14 -10 29 29 ESE 18 30 29.29 992 10 16 0.00 0.00
12:58 am 00:58 Clear 44 6.7 14 -9.9 30 30 SSE 16 26 29.07 984 10 16 0.00 0.00
12:59 am 00:59 Clear 45 7 14 -10 29 29 SE 17 28 29.38 995 10 16 0.00 0.00
1:07 am 01:07 Clear 45 7 14 -10 29 29 S 15 24 29.38 995 10 16 0.00 0.00
1:15 am 01:15 Clear 45 7 16 -9 31 31 SE 13 20 29.41 996 10 16 0.00 0.00
1:19 am 01:19 Mostly Clear 43 6 19 -7 39 39 SE 15 24 29.44 997 10 16 0.00 0.00
1:27 am 01:27 Partly Cloudy 41 5 23 -5 49 49 W 12 19 29.47 998 10 16 0.00 0.00
1:36 am 01:36 Partly Cloudy with Light Rain 39 4 25 -4 56 56 NW 14 22 29.50 999 3 5 0.00 0.00
1:41 am 01:41 Mostly Cloudy with Light Snow 37 3 28 -2 70 70 WNW 9 15 29.56 1001 1 2 0.00 0.00
1:44 am 01:44 Mostly Cloudy with Light Snow 36 2 28 -2 75 75 NW 16 26 29.59 1002 1 2 0.00 0.00
1:48 am 01:48 Mostly Cloudy with Light Snow 36 2 25 -4 65 65 N 16 26 29.53 1000 5 8 0.00 0.00
1:53 am 01:53 Partly Cloudy with Light Rain/Snow 37 3 23 -5 56 56 NNW 17 28 29.56 1001 10 16 0.00 0.00
1:58 am 01:58 Mostly Cloudy with Light Snow Showers 38 3.1 22 -5.7 53 53 WNW 10 17 29.26 991 10 16 0.00 0.00
2:04 am 02:04 Mostly Cloudy with Light Showers 37 3 19 -7 48 48 NE 13 20 29.59 1002 10 16 0.00 0.00
2:11 am 02:11 Partly Cloudy 37 3 19 -7 48 48 E 15 24 29.56 1001 10 16 0.00 0.00
2:58 am 02:58 Clear 38 3.5 7 -13.7 27 27 NW 8 13 29.29 992 10 16 0.00 0.00
3:46 am 03:46 Clear 37 3 7 -14 28 28 NE 15 24 29.62 1003 10 16 0.00 0.00
3:58 am 03:58 Clear 36 2.1 7 -13.7 30 30 N 17 28 29.36 994 10 16 0.00 0.00
4:29 am 04:29 Clear 36 2 5 -15 27 27 NNW 16 26 29.65 1004 10 16 0.00 0.00
4:58 am 04:58 Clear 35 1.6 4 -15.4 27 27 SSE 13 20 29.37 995 10 16 0.00 0.00
5:09 am 05:09 Clear 36 2 5 -15 27 27 SE 13 20 29.68 1005 10 16 0.00 0.00
5:58 am 05:58 Clear 35 1.9 5 -15.2 27 27 Calm 29.42 996 10 16 0.00 0.00
6:58 am 06:58 Clear 34 0.9 6 -14.4 31 31 SW 5 7 29.50 999 10 16 0.00 0.00
7:58 am 07:58 Sunny 35 1.9 9 -12.8 33 33 E 3 6 29.49 999 10 16 0.00 0.00
8:58 am 08:58 Sunny 39 3.7 12 -10.9 34 34 ESE 9 15 29.48 998 10 16 0.00 0.00
1:00 pm 13:00 Sunny 46 8 10 -12 23 23 SE 18 30 29.50 999 10 16 0.00 0.00
1:58 pm 13:58 Sunny 45 7 11 -11.5 26 26 SE 26 43 29.34 993 10 16 0.00 0.00
2:00 pm 14:00 Sunny 45 7 10 -12 25 25 ESE 20 31 29.53 1000 10 16 0.00 0.00
2:04 pm 14:04 Sunny 45 7 10 -12 25 25 E 14 22 29.53 1000 10 16 0.00 0.00
2:26 pm 14:26 Sunny 45 7 10 -12 25 25 SE 23 37 29.53 1000 10 16 0.00 0.00
2:48 pm 14:48 Sunny 45 7 10 -12 25 25 SSE 38 61 29.47 998 10 16 0.00 0.00
2:58 pm 14:58 Sunny 44 6.5 11 -11.9 26 26 SSE 31 50 29.32 993 10 16 0.00 0.00
3:02 pm 15:02 Sunny 43 6 10 -12 26 26 SSE 38 61 29.50 999 10 16 0.00 0.00
3:13 pm 15:13 Sunny 43 6 12 -11 29 29 SSE 40 65 29.50 999 10 16 0.00 0.00
3:23 pm 15:23 Sunny 43 6 12 -11 29 29 S 21 33 29.50 999 10 16 0.00 0.00
3:26 pm 15:26 Sunny 43 6 12 -11 29 29 SSE 20 31 29.50 999 10 16 0.00 0.00
3:35 pm 15:35 Sunny 43 6 10 -12 26 26 S 25 41 29.50 999 10 16 0.00 0.00
3:45 pm 15:45 Sunny 43 6 12 -11 29 29 SSE 18 30 29.50 999 10 16 0.00 0.00
3:56 pm 15:56 Sunny 43 6 10 -12 26 26 SE 35 56 29.47 998 10 16 0.00 0.00
3:58 pm 15:58 Sunny 43 6.1 11 -11.7 27 27 SE 41 67 29.26 991 10 16 0.00 0.00
4:00 pm 16:00 Sunny 43 6 10 -12 26 26 S 21 33 29.50 999 10 16 0.00 0.00
4:02 pm 16:02 Sunny 43 6 10 -12 26 26 SSE 18 30 29.50 999 10 16 0.00 0.00
4:11 pm 16:11 Sunny 43 6 10 -12 26 26 ESE 18 30 29.50 999 10 16 0.00 0.00
4:23 pm 16:23 Sunny 43 6 10 -12 26 26 E 13 20 29.50 999 10 16 0.00 0.00
4:30 pm 16:30 Sunny 43 6 10 -12 26 26 E 17 28 29.50 999 10 16 0.00 0.00
4:32 pm 16:32 Sunny 43 6 10 -12 26 26 NE 17 28 29.47 998 10 16 0.00 0.00
4:34 pm 16:34 Sunny 43 6 10 -12 26 26 NW 16 26 29.50 999 10 16 0.00 0.00
4:38 pm 16:38 Sunny 43 6 10 -12 26 26 ESE 13 20 29.47 998 10 16 0.00 0.00
4:46 pm 16:46 Sunny 43 6 10 -12 26 26 NE 20 31 29.47 998 10 16 0.00 0.00
4:50 pm 16:50 Sunny 43 6 10 -12 26 26 E 26 43 29.44 997 10 16 0.00 0.00
4:57 pm 16:57 Sunny 43 6 10 -12 26 26 NE 17 28 29.47 998 10 16 0.00 0.00
4:58 pm 16:58 Clear 43 6.3 10 -12.3 25 25 NNE 20 31 29.29 992 10 16 0.00 0.00
5:02 pm 17:02 Clear 45 7 10 -12 25 25 NNW 25 41 29.47 998 10 16 0.00 0.00
5:07 pm 17:07 Clear 45 7 9 -13 23 23 NE 30 48 29.41 996 10 16 0.00 0.00
5:10 pm 17:10 Clear 45 7 9 -13 23 23 E 22 35 29.44 997 10 16 0.00 0.00
5:13 pm 17:13 Clear 45 7 9 -13 23 23 NW 25 41 29.47 998 10 16 0.00 0.00
5:21 pm 17:21 Clear 45 7 10 -12 25 25 N 29 46 29.41 996 10 16 0.00 0.00
5:24 pm 17:24 Clear 45 7 9 -13 23 23 NNW 30 48 29.41 996 10 16 0.00 0.00
5:28 pm 17:28 Clear 45 7 9 -13 23 23 NW 40 65 29.44 997 10 16 0.00 0.00
5:38 pm 17:38 Clear 45 7 9 -13 23 23 W 25 41 29.47 998 10 16 0.00 0.00
5:40 pm 17:40 Clear 46 8 9 -13 21 21 WNW 29 46 29.47 998 10 16 0.00 0.00
5:48 pm 17:48 Clear 46 8 9 -13 21 21 W 36 57 29.50 999 10 16 0.00 0.00
5:52 pm 17:52 Clear 46 8 9 -13 21 21 WNW 26 43 29.50 999 10 16 0.00 0.00
5:55 pm 17:55 Clear 46 8 9 -13 21 21 NW 26 43 29.47 998 10 16 0.00 0.00
5:58 pm 17:58 Clear 47 8.3 7 -13.9 19 19 W 25 41 29.31 993 10 16 0.00 0.00
6:01 pm 18:01 Clear 48 9 9 -13 20 20 W 24 39 29.44 997 10 16 0.00 0.00
6:02 pm 18:02 Clear 48 9 9 -13 20 20 NNW 26 43 29.44 997 10 16 0.00 0.00
6:06 pm 18:06 Clear 48 9 9 -13 20 20 WNW 22 35 29.44 997 10 16 0.00 0.00
6:12 pm 18:12 Clear 48 9 9 -13 20 20 W 30 48 29.44 997 10 16 0.00 0.00
6:16 pm 18:16 Clear 48 9 9 -13 20 20 WSW 25 41 29.47 998 10 16 0.00 0.00
6:19 pm 18:19 Clear 48 9 7 -14 18 18 NW 18 30 29.44 997 10 16 0.00 0.00
6:21 pm 18:21 Clear 48 9 9 -13 20 20 W 21 33 29.44 997 10 16 0.00 0.00
6:23 pm 18:23 Clear 48 9 7 -14 18 18 NW 17 28 29.41 996 10 16 0.00 0.00
6:34 pm 18:34 Clear 48 9 9 -13 20 20 NE 12 19 29.35 994 10 16 0.00 0.00
6:52 pm 18:52 Clear 45 7 9 -13 23 23 SSW 24 39 29.47 998 10 16 0.00 0.00
6:58 pm 18:58 Clear 44 6.8 9 -12.9 23 23 S 20 31 29.35 994 10 16 0.00 0.00
7:00 pm 19:00 Clear 45 7 9 -13 23 23 S 13 20 29.53 1000 10 16 0.00 0.00
7:58 pm 19:58 Clear 44 6.7 9 -12.7 24 24 S 6 9 29.34 994 10 16 0.00 0.00
8:58 pm 20:58 Clear 43 6 11 -11.4 28 28 S 5 7 29.31 993 10 16 0.00 0.00
9:58 pm 21:58 Clear 42 5.4 13 -10.3 32 32 SE 3 6 29.50 999 10 16 0.00 0.00
10:41 pm 22:41 Clear 43 6 16 -9 34 34 ENE 14 22 29.41 996 10 16 0.00 0.00
10:42 pm 22:42 Clear 43 6 14 -10 31 31 NNE 14 22 29.41 996 10 16 0.00 0.00
10:44 pm 22:44 Clear 45 7 14 -10 29 29 ENE 13 20 29.38 995 10 16 0.00 0.00
10:46 pm 22:46 Clear 45 7 16 -9 31 31 SW 13 20 29.41 996 10 16 0.00 0.00
10:50 pm 22:50 Clear 45 7 14 -10 29 29 NW 24 39 29.41 996 10 16 0.00 0.00
10:54 pm 22:54 Clear 46 8 16 -9 29 29 N 21 33 29.35 994 10 16 0.00 0.00
10:57 pm 22:57 Clear 46 8 16 -9 29 29 NNW 22 35 29.38 995 10 16 0.00 0.00
11:00 pm 23:00 Clear 48 9 16 -9 27 27 NW 24 39 29.35 994 10 16 0.00 0.00
11:04 pm 23:04 Clear 48 9 16 -9 27 27 SW 20 31 29.35 994 10 16 0.00 0.00
11:05 pm 23:05 Clear 48 9 16 -9 27 27 W 20 31 29.35 994 10 16 0.00 0.00
11:06 pm 23:06 Clear 48 9 16 -9 27 27 NW 24 39 29.35 994 10 16 0.00 0.00
11:08 pm 23:08 Clear 48 9 16 -9 27 27 SW 30 48 29.32 993 10 16 0.00 0.00
11:10 pm 23:10 Clear 48 9 16 -9 27 27 NNW 28 44 29.32 993 10 16 0.00 0.00

Powered by AerisWeather